Weather in Arbuzinka

Ukraine / Mykolaiv District     47˚54′24″N   31˚18′48″E
temp.,
°C
wind,
m/s
gust,
m/s
humid.,
%
clouds,
%
prec.,
mm/h
press.,
hPa
HPBL,
m
1 december, tue
tue123:00−1˚nne81396100 2.3 1025506
02:00−1˚nne71295100 3.1 1025415
05:00−1˚nne61194100 0.2 1024423
08:00nne6995100 0.3 1024356
11:00nne5999100 0.0 1024313
14:00+1˚nne48100100 0.1 1024257
17:00+1˚ne47100100 0.0 1024265
20:00+1˚ene36100100 0.1 1024262
2 december, wed
wed223:00+1˚ene36100100 0.1 1025281
02:00+1˚ene35100100 0.1 1025264
05:00+1˚ne35100100 0.1 1025212
08:00+1˚ene24100100 0.2 1025155
11:00+1˚ne34100100 0.8 1025110
14:00+2˚ne34100100 1.3 1025140
17:00+2˚ene35100100 0.5 1024134
20:00+2˚ene34100100 0.9 1025121
3 december, thu
thu323:00+2˚e22100100 0.1 102550
02:00+2˚ne1198100 0.1 102522
05:00+2˚sse129797 0.0 102435
08:00+1˚sw229890 0.0 102549
11:00+3˚s138858 0.0 1025277
14:00+4˚s238079 0.0 1024382
17:00+2˚se238589 0.0 102424
20:00+2˚ese458361 0.0 1024104
4 december, fri
fri423:00+3˚ese587989 0.0 1024168
02:00+3˚ese498693 0.0 1023249
05:00+2˚ese5109578 0.0 1022237
08:00+1˚ese6109458 0.0 1023276
11:00+4˚ese610855 0.0 1022391
14:00+5˚ese610867 0.0 1021423
17:00+4˚ese7109383 0.0 1021437
20:00+5˚ese7128892 0.0 1021504
5 december, sat
sat523:00+3˚ese7139378 0.0 1021390
02:00+3˚ese7119287 0.0 1021407
05:00+3˚ese71193100 0.0 1021414
08:00+3˚ese81293100 0.0 1021420
11:00+5˚se81184100 0.0 1022448
14:00+6˚ese7117797 0.0 1022452
17:00+4˚ese7138320 0.0 1023407
20:00+3˚ese8148525 0.0 1023432